Lid_Strength_Index
3 2 2 2 3 2 2 4 4 3 3 3 3 4 4 4 4 5 6 6 7 7
1 1 1 2 2 2 4 4 3 3 4 4 4 4 4 5 5 6 6 6 7 7
3 1 2 2 3 4 4 4 4 4 5 4 4 5 5 5 6 6 6 7 7 7
1 2 3 4 4 5 4 5 4 5 4 4 5 5 5 6 6 6 7 7 7 8
2 3 5 6 5 5 5 5 4 3 4 5 5 5 5 6 6 6 7 8 9 9
3 5 5 6 6 6 5 6 6 6 6 5 5 5 5 6 6 6 7 8 9 10
6 6 6 6 6 7 7 7 7 8 8 8 8 8 6 6 7 7 7 8 9 10
6 6 7 8 8 9 8 8 9 10 11 10 10 9 7 6 8 9 10 9 9 9
6 7 8 9 10 10 11 12 12 13 12 12 11 10 7 7 9 10 11 12 11 9
8 8 8 10 11 12 13 14 15 14 13 13 11 9 8 8 10 12 12 12 11 10
7 8 9 10 11 13 15 14 14 14 14 13 12 10 9 9 12 12 11 11 11 12
8 7 9 10 13 14 14 13 14 14 14 14 14 11 11 10 11 11 11 11 10 11
6 7 9 10 11 11 12 13 14 14 14 12 14 11 12 12 11 12 11 11 11 9
7 9 10 10 11 12 14 14 14 15 16 15 14 13 11 10 12 12 11 11 12 11